Oelwein, IA

5:10 AM CDT on August 24, 2019 (GMT -0500)
Oelwein Municipal

Weather History for KOLZ - June, 2019

Change the Weather History Date:

Tuesday, June 4, 2019

  Actual Average Record
Temperature  
Mean Temperature 68 °F -  
Max Temperature 80 °F 77 °F 92 °F (1948)
Min Temperature 55 °F 52 °F 38 °F (1990)
Cooling Degree Days 2    
Growing Degree Days 18 (Base 50)    
Moisture  
Dew Point 66 °F    
Average Humidity 90    
Maximum Humidity 100    
Minimum Humidity 74    
Precipitation  
Precipitation 0.00 in - - ()
Sea Level Pressure  
Sea Level Pressure 29.84 in    
Wind  
Wind Speed 13 mph (SSE)    
Max Wind Speed 20 mph    
Max Gust Speed 26 mph    
Visibility 9 miles    
Events      
Averages and records for this station are not official NWS values.
T = Trace of Precipitation, MM = Missing Value Source: NWS Daily Summary

Daily Weather History Graph

Daily Weather History Graph

Search for Another Location

Airport or City:

Astronomy

Jun. 04, 2019 Rise Set
Actual Time 5:31 AM CDT 8:41 PM CDT
Civil Twilight 4:56 AM CDT 9:15 PM CDT
Nautical Twilight 4:12 AM CDT 10:00 PM CDT
Astronomical Twilight 3:19 AM CDT 10:53 PM CDT
Moon 6:41 AM CDT (6/4) 10:09 PM CDT (6/4)
Length of Visible Light 16h 18m
Length of Day
15h 10m
New Moon, 2% of the Moon is Illuminated
Jun 4
New Moon
Jun 10
First Quarter
Jun 17
Full
Jun 25
Last Quarter
Jul 2
New

Hourly Weather History & Observations

Time (CDT) Temp. Heat Index Dew Point Humidity Pressure Visibility Wind Dir Wind Speed Gust Speed Precip Events Conditions
12:15 AM 59.0 °F - 59.0 °F 100% 30.01 in 9.0 mi South 11.5 mph - N/A   Mostly Cloudy
12:35 AM 59.0 °F - 59.0 °F 100% 30.01 in 10.0 mi South 9.2 mph - N/A   Overcast
12:55 AM 59.0 °F - 59.0 °F 100% 30.01 in 10.0 mi South 9.2 mph - N/A   Overcast
1:15 AM 60.8 °F - 59.0 °F 94% 30.01 in 10.0 mi SSW 15.0 mph - N/A   Overcast
1:35 AM 59.0 °F - 59.0 °F 100% 30.00 in 10.0 mi South 18.4 mph - N/A   Overcast
1:55 AM - - - N/A% 30.00 in 4.0 mi South 12.7 mph 23.0 mph N/A   Overcast
2:15 AM 57.2 °F - 57.2 °F 100% 29.99 in 3.0 mi SSE 12.7 mph - N/A   Overcast
2:35 AM 57.2 °F - 57.2 °F 100% 29.98 in 2.0 mi SSE 12.7 mph - N/A   Mostly Cloudy
2:55 AM 57.2 °F - 57.2 °F 100% 29.96 in 7.0 mi SE 15.0 mph - N/A   Mostly Cloudy
3:15 AM 57.2 °F - 57.2 °F 100% 29.95 in 4.0 mi SE 12.7 mph - N/A   Overcast
3:35 AM 57.2 °F - 55.4 °F 94% 29.95 in 5.0 mi East 9.2 mph 15.0 mph N/A   Overcast
3:55 AM 55.4 °F - 55.4 °F 100% 29.95 in 1.2 mi ESE 8.1 mph - N/A   Overcast
4:15 AM 57.2 °F - 57.2 °F 100% 29.93 in 9.0 mi ESE 11.5 mph - N/A   Overcast
4:35 AM 57.2 °F - 57.2 °F 100% 29.92 in 10.0 mi SE 13.8 mph 20.7 mph N/A   Overcast
4:55 AM 57.2 °F - 57.2 °F 100% 29.91 in 10.0 mi SE 12.7 mph - N/A   Overcast
5:15 AM 57.2 °F - 57.2 °F 100% 29.90 in 10.0 mi SE 13.8 mph - N/A   Overcast
5:35 AM 57.2 °F - 57.2 °F 100% 29.91 in 10.0 mi SSE 16.1 mph 23.0 mph N/A   Overcast
5:55 AM - - - N/A% 29.91 in 10.0 mi SSE 18.4 mph - N/A   Overcast
6:15 AM 59.0 °F - 59.0 °F 100% 29.90 in 10.0 mi SSE 16.1 mph - N/A   Overcast
6:35 AM 59.0 °F - 59.0 °F 100% 29.90 in 10.0 mi SSE 16.1 mph 21.9 mph N/A   Overcast
6:55 AM 59.0 °F - 59.0 °F 100% 29.90 in 10.0 mi SSE 13.8 mph - N/A   Overcast
7:15 AM 60.8 °F - 60.8 °F 100% 29.90 in 10.0 mi SSE 12.7 mph - N/A   Scattered Clouds
7:35 AM 60.8 °F - 60.8 °F 100% 29.90 in 10.0 mi SSE 13.8 mph - N/A   Clear
7:55 AM 62.6 °F - 60.8 °F 94% 29.91 in 10.0 mi South 15.0 mph - N/A   Mostly Cloudy
8:15 AM 62.6 °F - 62.6 °F 100% 29.90 in 10.0 mi South 15.0 mph - N/A   Overcast
8:35 AM 64.4 °F - 62.6 °F 94% 29.90 in 10.0 mi South 16.1 mph - N/A   Mostly Cloudy
8:55 AM 66.2 °F - 64.4 °F 94% 29.89 in 10.0 mi South 15.0 mph - N/A   Mostly Cloudy
9:15 AM 66.2 °F - 64.4 °F 94% 29.89 in 9.0 mi South 12.7 mph - N/A   Overcast
9:35 AM 66.2 °F - 66.2 °F 100% 29.88 in 9.0 mi South 13.8 mph - N/A   Overcast
9:55 AM 68.0 °F - 66.2 °F 94% 29.87 in 10.0 mi South 17.3 mph - N/A   Overcast
10:15 AM 68.0 °F - 66.2 °F 94% 29.87 in 10.0 mi South 16.1 mph - N/A   Overcast
10:35 AM 68.0 °F - 66.2 °F 94% 29.86 in 10.0 mi South 12.7 mph - N/A   Overcast
10:55 AM 68.0 °F - 68.0 °F 100% 29.85 in 10.0 mi SSE 15.0 mph - N/A   Overcast
11:15 AM 69.8 °F - 68.0 °F 94% 29.84 in 10.0 mi South 11.5 mph 18.4 mph N/A   Mostly Cloudy
11:35 AM 69.8 °F - 68.0 °F 94% 29.85 in 10.0 mi South 9.2 mph - N/A   Mostly Cloudy
11:55 AM 73.4 °F - 69.8 °F 88% 29.85 in 10.0 mi SSE 11.5 mph - N/A   Scattered Clouds
12:15 PM 75.2 °F - 71.6 °F 89% 29.84 in 10.0 mi South 15.0 mph - N/A   Scattered Clouds
12:35 PM 75.2 °F - 71.6 °F 89% 29.84 in 10.0 mi South 11.5 mph - N/A   Mostly Cloudy
12:55 PM 77.0 °F - 71.6 °F 83% 29.84 in 10.0 mi South 17.3 mph 23.0 mph N/A   Mostly Cloudy
1:15 PM 75.2 °F - 71.6 °F 89% 29.83 in 10.0 mi South 16.1 mph - N/A   Mostly Cloudy
1:35 PM 77.0 °F - 71.6 °F 83% 29.82 in 10.0 mi South 18.4 mph 25.3 mph N/A   Mostly Cloudy
1:55 PM 75.2 °F - 71.6 °F 89% 29.81 in 10.0 mi SSW 16.1 mph 23.0 mph N/A   Mostly Cloudy
2:15 PM 78.8 °F - 73.4 °F 83% 29.81 in 10.0 mi South 16.1 mph - N/A   Overcast
2:35 PM 77.0 °F - 73.4 °F 89% 29.80 in 10.0 mi SSW 15.0 mph 21.9 mph N/A   Overcast
2:55 PM 78.8 °F - 73.4 °F 83% 29.80 in 10.0 mi SSW 19.6 mph - N/A   Overcast
3:15 PM 78.8 °F - 73.4 °F 83% 29.80 in 10.0 mi SSW 15.0 mph - N/A   Mostly Cloudy
3:35 PM 78.8 °F - 73.4 °F 83% 29.79 in 10.0 mi SSW 16.1 mph - N/A   Scattered Clouds
3:55 PM 78.8 °F - 73.4 °F 83% 29.78 in 10.0 mi South 16.1 mph - N/A   Partly Cloudy
4:15 PM 80.6 °F 85.4 °F 73.4 °F 79% 29.77 in 10.0 mi South 17.3 mph - N/A   Partly Cloudy
4:35 PM 78.8 °F - 73.4 °F 83% 29.76 in 10.0 mi South 17.3 mph - N/A   Scattered Clouds
4:55 PM 78.8 °F - 73.4 °F 83% 29.76 in 10.0 mi SSW 11.5 mph 17.3 mph N/A   Scattered Clouds
5:15 PM 80.6 °F 84.6 °F 71.6 °F 74% 29.75 in 10.0 mi SSW 15.0 mph - N/A   Scattered Clouds
5:35 PM 80.6 °F 84.6 °F 71.6 °F 74% 29.74 in 10.0 mi SSW 17.3 mph 25.3 mph N/A   Partly Cloudy
5:55 PM 80.6 °F 84.6 °F 71.6 °F 74% 29.73 in 10.0 mi SSW 17.3 mph - N/A   Partly Cloudy
6:15 PM 80.6 °F 84.6 °F 71.6 °F 74% 29.72 in 10.0 mi SSW 16.1 mph - N/A   Partly Cloudy
6:35 PM 78.8 °F - 71.6 °F 78% 29.72 in 10.0 mi SSW 17.3 mph - N/A   Partly Cloudy
6:55 PM 78.8 °F - 71.6 °F 78% 29.73 in 10.0 mi SSW 12.7 mph - N/A   Clear
7:15 PM 77.0 °F - 71.6 °F 83% 29.72 in 10.0 mi SSW 12.7 mph 18.4 mph N/A   Partly Cloudy
7:35 PM 77.0 °F - 71.6 °F 83% 29.72 in 10.0 mi SSW 10.4 mph - N/A   Partly Cloudy
7:55 PM 77.0 °F - 73.4 °F 89% 29.73 in 10.0 mi SSW 9.2 mph - N/A   Clear
8:15 PM 75.2 °F - 73.4 °F 94% 29.73 in 10.0 mi South 9.2 mph - N/A   Partly Cloudy
8:35 PM 75.2 °F - 73.4 °F 94% 29.75 in 10.0 mi Calm Calm - N/A   Mostly Cloudy
8:55 PM 75.2 °F - 71.6 °F 89% 29.76 in 10.0 mi North 12.7 mph 21.9 mph N/A   Overcast
9:15 PM 69.8 °F - 62.6 °F 78% 29.76 in 10.0 mi NE 13.8 mph 24.2 mph N/A   Overcast
9:35 PM 69.8 °F - 62.6 °F 78% 29.75 in 10.0 mi NE 9.2 mph - N/A   Mostly Cloudy
9:55 PM 68.0 °F - 62.6 °F 83% 29.76 in 10.0 mi East 6.9 mph - N/A   Scattered Clouds
10:15 PM 68.0 °F - 62.6 °F 83% 29.75 in 10.0 mi East 8.1 mph - N/A   Partly Cloudy
10:35 PM 68.0 °F - 62.6 °F 83% 29.75 in 10.0 mi ESE 5.8 mph - N/A   Clear
10:55 PM 66.2 °F - 62.6 °F 88% 29.75 in 10.0 mi ESE 5.8 mph - N/A   Clear
11:15 PM 66.2 °F - 62.6 °F 88% 29.74 in 10.0 mi SE 6.9 mph - N/A   Clear
11:35 PM 68.0 °F - 62.6 °F 83% 29.77 in 10.0 mi North 16.1 mph 26.5 mph N/A   Mostly Cloudy
11:55 PM 68.0 °F - 62.6 °F 83% 29.74 in 10.0 mi NNE 12.7 mph 26.5 mph N/A   Mostly Cloudy